Canyon City, OR

6:19 PM PST on December 03, 2016 (GMT -0800)
Grant County Regional

Weather History for KGCD - April, 2014

Change the Weather History Date:

Wednesday, April 30, 2014

  Actual Average (KBNO) Record (KBNO)
Temperature  
Mean Temperature 56 °F 47 °F  
Max Temperature 73 °F 61 °F 81 °F (1981)
Min Temperature 39 °F 32 °F 18 °F (2013)
Degree Days  
Heating Degree Days 9 18  
Month to date heating degree days 654  
Since 1 July heating degree days 7040  
Cooling Degree Days 0 0  
Month to date cooling degree days 0  
Year to date cooling degree days 0  
Growing Degree Days 6 (Base 50)    
Moisture  
Dew Point 29 °F    
Average Humidity 36    
Maximum Humidity 61    
Minimum Humidity 18    
Precipitation  
Precipitation 0.00 in 0.03 in 0.44 in (1987)
Month to date precipitation 0.93  
Year to date precipitation 4.23  
Sea Level Pressure  
Sea Level Pressure 30.42 in    
Wind  
Wind Speed 8 mph (ESE)    
Max Wind Speed 14 mph    
Max Gust Speed -    
Visibility 10 miles    
Events      
T = Trace of Precipitation, MM = Missing Value Source: NWS Daily Summary

Daily Weather History Graph

Daily Weather History Graph

Search for Another Location

Airport or City:

Trip Planner

Search our weather history database for the weather conditions in past years. The results will help you decide how hot, cold, wet, or windy it might be!

Date:

Astronomy

Apr. 30, 2014 Rise Set
Actual Time 5:47 AM PDT 7:58 PM PDT
Civil Twilight 5:16 AM PDT 8:30 PM PDT
Nautical Twilight 4:36 AM PDT 9:10 PM PDT
Astronomical Twilight 3:53 AM PDT 9:54 PM PDT
Moon 6:51 AM PDT (4/30) 9:44 PM PDT (4/30)
Length of Visible Light 15h 14m
Length of Day
14h 11m
Waxing Crescent, 3% of the Moon is Illuminated
Apr 30
Waxing Crescent
May 6
First Quarter
May 14
Full
May 21
Last Quarter
May 28
New

Hourly Weather History & Observations

Time (PDT) Temp. Windchill Dew Point Humidity Pressure Visibility Wind Dir Wind Speed Gust Speed Precip Events Conditions
12:35 AM 46.4 °F 41.9 °F 28.4 °F 50% 30.50 in 10.0 mi SE 9.2 mph - N/A   Clear
12:55 AM 46.4 °F 41.9 °F 26.6 °F 46% 30.50 in 10.0 mi SE 9.2 mph - N/A   Clear
1:15 AM 46.4 °F 42.4 °F 26.6 °F 46% 30.50 in 10.0 mi SE 8.1 mph - N/A   Clear
1:35 AM 44.6 °F 39.2 °F 28.4 °F 53% 30.50 in 10.0 mi ESE 10.4 mph - N/A   Clear
2:15 AM 42.8 °F 38.0 °F 26.6 °F 53% 30.50 in 10.0 mi ESE 8.1 mph - N/A   Clear
2:35 AM 44.6 °F 38.8 °F 26.6 °F 49% 30.50 in 10.0 mi SE 11.5 mph - N/A   Clear
2:57 AM 44.6 °F 38.8 °F 26.6 °F 49% 30.50 in 10.0 mi SE 11.5 mph - N/A   Clear
3:15 AM 42.8 °F 36.6 °F 26.6 °F 53% 30.50 in 10.0 mi ESE 11.5 mph - N/A   Clear
3:35 AM 44.6 °F 39.2 °F 26.6 °F 49% 30.50 in 10.0 mi ESE 10.4 mph - N/A   Clear
3:56 AM 41.0 °F 34.7 °F 26.6 °F 57% 30.49 in 10.0 mi ESE 10.4 mph - N/A   Clear
4:15 AM 41.0 °F 33.5 °F 26.6 °F 57% 30.49 in 10.0 mi SE 13.8 mph - N/A   Clear
4:35 AM 41.0 °F 34.7 °F 26.6 °F 57% 30.49 in 10.0 mi SE 10.4 mph - N/A   Clear
5:15 AM 41.0 °F 35.2 °F 26.6 °F 57% 30.49 in 10.0 mi ESE 9.2 mph - N/A   Clear
5:35 AM 39.2 °F 33.0 °F 26.6 °F 61% 30.49 in 10.0 mi ESE 9.2 mph - N/A   Clear
6:15 AM 39.2 °F 33.0 °F 26.6 °F 61% 30.50 in 10.0 mi SE 9.2 mph - N/A   Clear
6:35 AM 41.0 °F 34.7 °F 28.4 °F 61% 30.50 in 10.0 mi SE 10.4 mph - N/A   Clear
7:15 AM 44.6 °F 40.7 °F 28.4 °F 53% 30.50 in 10.0 mi ESE 6.9 mph - N/A   Clear
7:37 AM 44.6 °F 39.2 °F 28.4 °F 53% 30.50 in 10.0 mi ESE 10.4 mph - N/A   Clear
7:55 AM 46.4 °F 41.9 °F 28.4 °F 50% 30.50 in 10.0 mi East 9.2 mph - N/A   Clear
8:15 AM 48.2 °F - 30.2 °F 50% 30.50 in 10.0 mi East 6.9 mph - N/A   Clear
8:55 AM 51.8 °F - 30.2 °F 44% 30.49 in 10.0 mi East 8.1 mph - N/A   Clear
9:15 AM 53.6 °F - 30.2 °F 41% 30.48 in 10.0 mi East 6.9 mph - N/A   Clear
9:37 AM 57.2 °F - 28.4 °F 33% 30.48 in 10.0 mi East 5.8 mph - N/A   Clear
9:55 AM 59.0 °F - 30.2 °F 34% 30.48 in 10.0 mi ENE 5.8 mph - N/A   Clear
10:15 AM 62.6 °F - 30.2 °F 30% 30.47 in 10.0 mi ENE 4.6 mph - N/A   Clear
10:55 AM 62.6 °F - 26.6 °F 26% 30.47 in 10.0 mi North 3.5 mph - N/A   Clear
11:15 AM 64.4 °F - 30.2 °F 28% 30.46 in 10.0 mi NE 4.6 mph - N/A   Clear
11:35 AM 66.2 °F - 26.6 °F 23% 30.46 in 10.0 mi ENE 5.8 mph - N/A   Clear
11:55 AM 66.2 °F - 24.8 °F 21% 30.45 in 10.0 mi NNE 6.9 mph - N/A   Clear
12:15 PM 66.2 °F - 26.6 °F 23% 30.44 in 10.0 mi East 4.6 mph - N/A   Clear
12:35 PM 68.0 °F - 26.6 °F 21% 30.43 in 10.0 mi ENE 6.9 mph - N/A   Clear
12:56 PM 69.8 °F - 28.4 °F 21% 30.42 in 10.0 mi Calm Calm - N/A   Clear
1:17 PM 69.8 °F - 28.4 °F 21% 30.41 in 10.0 mi NE 4.6 mph - N/A   Clear
1:35 PM 69.8 °F - 28.4 °F 21% 30.40 in 10.0 mi Calm Calm - N/A   Clear
1:55 PM 69.8 °F - 28.4 °F 21% 30.40 in 10.0 mi NE 4.6 mph - N/A   Clear
2:35 PM 73.4 °F - 33.8 °F 23% 30.39 in 10.0 mi NNE 6.9 mph - N/A   Clear
3:35 PM 73.4 °F - 30.2 °F 20% 30.36 in 10.0 mi NE 5.8 mph - N/A   Clear
3:55 PM 73.4 °F - 30.2 °F 20% 30.35 in 10.0 mi East 4.6 mph - N/A   Clear
4:17 PM 73.4 °F - 30.2 °F 20% 30.34 in 10.0 mi Calm Calm - N/A   Clear
4:35 PM 73.4 °F - 30.2 °F 20% 30.34 in 10.0 mi Calm Calm - N/A   Clear
4:55 PM 73.4 °F - 28.4 °F 19% 30.33 in 10.0 mi East 4.6 mph - N/A   Clear
5:35 PM 73.4 °F - 28.4 °F 19% 30.32 in 10.0 mi Calm Calm - N/A   Clear
5:55 PM 73.4 °F - 26.6 °F 18% 30.31 in 10.0 mi Calm Calm - N/A   Clear
6:35 PM 73.4 °F - 32.0 °F 22% 30.30 in 10.0 mi ESE 4.6 mph - N/A   Clear
7:15 PM 71.6 °F - 33.8 °F 25% 30.30 in 10.0 mi ESE 3.5 mph - N/A   Clear
7:35 PM 69.8 °F - 28.4 °F 21% 30.30 in 10.0 mi ESE 3.5 mph - N/A   Clear
7:57 PM 66.2 °F - 32.0 °F 28% 30.29 in 10.0 mi SSE 6.9 mph - N/A   Clear
8:15 PM 62.6 °F - 30.2 °F 30% 30.29 in 10.0 mi South 10.4 mph - N/A   Clear
8:35 PM 64.4 °F - 30.2 °F 28% 30.30 in 10.0 mi East 8.1 mph - N/A   Clear
9:15 PM 62.6 °F - 30.2 °F 30% 30.32 in 10.0 mi ESE 8.1 mph - N/A   Clear
9:35 PM 62.6 °F - 28.4 °F 27% 30.32 in 10.0 mi SE 8.1 mph - N/A   Clear
10:15 PM 57.2 °F - 30.2 °F 36% 30.32 in 10.0 mi SE 6.9 mph - N/A   Clear
10:35 PM 57.2 °F - 30.2 °F 36% 30.32 in 10.0 mi East 3.5 mph - N/A   Clear
11:15 PM 55.4 °F - 28.4 °F 36% 30.32 in 10.0 mi SSE 6.9 mph - N/A   Clear
11:35 PM 55.4 °F - 28.4 °F 36% 30.32 in 10.0 mi SSE 6.9 mph - N/A   Clear
11:57 PM 57.2 °F - 26.6 °F 31% 30.32 in 10.0 mi South 5.8 mph - N/A   Clear